Hourly Weather Roundup
Issued by NWS

Home | Current Version | Previous Version | Text Only | Print | Product List | Glossary On
Versions: 1 2 3 4 5 6 7 8 9 10 11 12 13 14 15 16 17 18 19 20 21 22 23 24 25 26 27 28 29 30 31 32 33 34 35 36 37 38 39 40 41 42 43 44 45 46 47 48 49 50
000
NZUS43 KILX 240410
HWRCRS

NWR Hourly Weather Roundup
National Weather Service Lincoln IL
1000 PM CST THU NOV 23 2017


CITY           SKY/WX    TMP DP  RH WIND       PRES   REMARKS
Champaign      CLEAR     34  27  75 S10       29.96S WCI  26
Lawrenceville  CLEAR     35  25  66 S5        30.01S WCI  31
Peoria         CLEAR     32  26  78 CALM      29.93F
Springfield    CLOUDY    32  27  81 S3        29.96S
$$


CITY           SKY/WX    TMP DP  RH WIND       PRES   REMARKS
Bloomington    CLOUDY    34  27  75 S5        29.95F WCI  30
Danville       CLEAR     35  26  69 S7        29.95S WCI  29
Decatur        CLEAR     34  27  75 S3        29.96F
Effingham      CLEAR     35  27  71 SE3       29.99F
Flora          CLEAR     34  26  73 S3        30.00S
Galesburg      CLEAR     33  29  83 SW3       29.92S
Jacksonville   CLOUDY    33  28  82 S6        29.93F WCI  27
Lacon          CLEAR     30  26  84 S5        29.91F WCI  25
La Salle       CLEAR     34  26  71 SW6       29.91F WCI  29
Lincoln        CLEAR     32  30  90 CALM      29.95S
Litchfield     CLEAR     36  27  71 S5        29.96S WCI  32

CITY           SKY/WX    TMP DP  RH WIND       PRES   REMARKS
Macomb         CLEAR     34  28  79 CALM      29.94S
Mattoon        CLEAR     37  26  64 S7        29.96S WCI  32
Moline         CLEAR     30  25  81 CALM      29.90S
Olney          CLEAR     37  21  51 S5        30.00S WCI  34
Paris          CLEAR     32  28  83 S8        29.99S WCI  25
Pontiac        CLEAR     30  28  94 S3        29.94F
Quincy         CLEAR     37  29  72 S7        29.92S WCI  32
Rantoul        CLEAR     35  30  82 S5        29.96S WCI  31
Robinson       CLEAR     29  24  80 CALM      30.02R
Taylorville    CLEAR     36  27  71 S5        29.97S WCI  32
Terre Haute    CLEAR     31  23  72 CALM      30.00S
$$


CITY           SKY/WX    TMP DP  RH WIND       PRES   REMARKS
Burlington     CLEAR     37  30  75 S6        29.90F WCI  32
Chicago        CLEAR     34  26  72 S5        29.90S WCI  30
Des Moines     CLOUDY    46  34  62 S10       29.81F
Evansville     CLEAR     34  28  79 CALM      30.03S
Indianapolis   CLEAR     33  21  61 S6        30.00F WCI  28
Kansas City    MOCLDY    48  37  65 S9        29.89F
Milwaukee      CLEAR     35  25  66 S5        29.87F WCI  31
St Louis       CLEAR     40  31  70 CALM      29.96F
$$





USA.gov is the U.S. government's official web portal to all federal, state and local government web resources and services.